Humidity-temperature Sensor

Selected Measurement Type: Relative Humidity

 
Relative Humidity [%]     6 entries per hour
Showing data from 9/6/2017 (00:00:00 Z) to 9/3/2017 (00:01:00 Z)
Previous Next [ Day | 3-Days | 7-Days ]
First Last
Prev [ Day | 3-Days | 7-Days ] Next
First Last

Start Time:     :
End Time:     :     
Time (in GMT) :00 :50 :40 :30 :20 :10
Previous Next [ Day | 3-Days | 7-Days ]
First Last
Prev [ Day | 3-Days | 7-Days ] Next
First Last


123 => good data
MM => data is determined as missing
-- => data not received/configured
Back to Top Back to Top
9/6/2017 00:00 to 23:10 70.93 71.18 70.99 70.32 69.10 72.36
9/5/2017 23:00 to 22:10 70.97 72.45 71.69 72.28 73.04 75.88
9/5/2017 22:00 to 21:10 74.51 73.50 74.45 73.06 73.84 78.37
9/5/2017 21:00 to 20:10 79.88 81.48 82.14 80.16 82.62 79.99
9/5/2017 20:00 to 19:10 80.62 79.44 78.37 77.71 76.34 79.86
9/5/2017 19:00 to 18:10 80.68 78.47 79.42 83.04 81.48 83.80
9/5/2017 18:00 to 17:10 85.55 85.23 84.52 84.18 84.26 84.77
9/5/2017 17:00 to 16:10 83.08 86.01 89.42 87.15 86.03 78.39
9/5/2017 16:00 to 15:10 77.38 81.69 86.16 91.70 89.32 78.96
9/5/2017 15:00 to 14:10 80.09 80.18 81.59 81.57 79.27 81.34
9/5/2017 14:00 to 13:10 81.10 81.23 81.80 78.66 77.12 78.13
9/5/2017 13:00 to 12:10 78.49 84.56 84.09 85.53 85.21 85.13
9/5/2017 12:00 to 11:10 86.10 86.52 86.37 85.97 85.99 85.27
9/5/2017 11:00 to 10:10 85.17 84.35 83.59 84.26 84.31 84.90
9/5/2017 10:00 to 9:10 85.13 85.32 85.55 85.63 86.90 87.38
9/5/2017 09:00 to 8:10 87.63 87.57 87.23 86.79 86.75 86.18
9/5/2017 08:00 to 7:10 86.45 86.24 86.52 86.92 87.40 87.04
9/5/2017 07:00 to 6:10 86.45 86.56 86.14 86.69 88.18 87.36
9/5/2017 06:00 to 5:10 -- -- -- -- -- --
9/5/2017 05:00 to 4:10 90.56 91.36 91.78 91.61 90.58 87.09
9/5/2017 04:00 to 3:10 86.66 85.67 83.23 83.36 85.80 87.93
9/5/2017 03:00 to 2:10 88.24 89.97 89.36 89.80 91.99 92.44
9/5/2017 02:00 to 1:10 94.33 93.68 92.77 92.22 89.72 86.33
9/5/2017 01:00 to 0:10 87.23 87.40 87.82 87.30 88.94 88.81
9/5/2017 00:00 to 23:10 88.48 88.62 87.51 79.00 78.20 78.49
9/4/2017 23:00 to 22:10 78.16 78.43 80.05 80.51 81.84 81.29
9/4/2017 22:00 to 21:10 78.83 80.51 82.03 83.13 82.83 85.25
9/4/2017 21:00 to 20:10 87.57 88.60 86.16 84.71 84.39 84.85
9/4/2017 20:00 to 19:10 85.17 85.25 85.21 87.11 87.04 87.32
9/4/2017 19:00 to 18:10 87.74 88.71 88.54 88.14 86.39 77.23
9/4/2017 18:00 to 17:10 78.74 78.68 79.00 76.55 77.48 78.37
9/4/2017 17:00 to 16:10 77.00 75.88 76.30 77.06 77.99 79.02
9/4/2017 16:00 to 15:10 78.68 79.63 80.66 80.39 79.46 80.66
9/4/2017 15:00 to 14:10 80.37 80.72 80.54 81.38 76.51 74.34
9/4/2017 14:00 to 13:10 73.71 75.48 76.62 78.53 77.46 76.70
9/4/2017 13:00 to 12:10 75.31 75.21 73.90 76.91 83.04 78.30
9/4/2017 12:00 to 11:10 76.32 75.37 77.00 78.77 79.76 76.55
9/4/2017 11:00 to 10:10 77.31 72.49 73.42 72.83 73.63 76.26
9/4/2017 10:00 to 9:10 75.88 77.52 77.23 76.89 75.48 74.87
9/4/2017 09:00 to 8:10 74.47 76.39 74.01 75.42 74.28 73.88
9/4/2017 08:00 to 7:10 75.12 75.40 72.59 74.13 75.54 75.40
9/4/2017 07:00 to 6:10 73.96 75.84 74.43 74.32 74.81 74.51
9/4/2017 06:00 to 5:10 74.81 74.72 75.23 74.55 74.34 72.43
9/4/2017 05:00 to 4:10 72.28 72.34 70.74 71.33 72.66 72.53
9/4/2017 04:00 to 3:10 70.93 71.86 72.53 72.78 72.24 71.96
9/4/2017 03:00 to 2:10 71.92 72.15 72.07 72.28 73.14 72.66
9/4/2017 02:00 to 1:10 73.29 73.10 73.88 73.54 74.09 73.29
9/4/2017 01:00 to 0:10 73.56 73.80 73.33 72.15 71.63 74.22
9/4/2017 00:00 to 23:10 73.10 72.95 72.81 71.96 73.48 72.11
9/3/2017 23:00 to 22:10 71.52 73.27 73.84 73.92 73.10 73.69
9/3/2017 22:00 to 21:10 72.55 70.78 72.17 71.25 71.18 71.33
9/3/2017 21:00 to 20:10 70.76 73.25 72.05 74.72 72.74 73.40
9/3/2017 20:00 to 19:10 71.20 73.96 74.55 73.58 73.18 73.54
9/3/2017 19:00 to 18:10 71.54 73.16 73.42 71.92 74.89 75.29
9/3/2017 18:00 to 17:10 74.53 74.95 75.21 74.89 73.54 73.40
9/3/2017 17:00 to 16:10 74.22 77.73 79.38 79.42 78.20 78.60
9/3/2017 16:00 to 15:10 78.43 79.57 75.54 75.02 74.13 77.21
9/3/2017 15:00 to 14:10 75.99 75.99 74.89 73.61 74.20 73.67
9/3/2017 14:00 to 13:10 72.03 74.53 74.83 76.05 75.46 75.00
9/3/2017 13:00 to 12:10 74.24 75.50 73.46 73.92 73.82 74.62
9/3/2017 12:00 to 11:10 73.06 74.32 72.78 74.32 73.27 73.69
9/3/2017 11:00 to 10:10 73.90 73.04 73.56 72.95 73.33 73.10
9/3/2017 10:00 to 9:10 72.72 73.58 75.19 76.49 78.11 77.75
9/3/2017 09:00 to 8:10 77.73 77.42 77.99 77.57 78.34 78.39
9/3/2017 08:00 to 7:10 75.65 77.31 76.62 80.28 78.26 73.54
9/3/2017 07:00 to 6:10 78.62 77.73 78.18 77.04 78.32 78.43
9/3/2017 06:00 to 5:10 77.92 78.43 74.62 75.88 74.30 72.34
9/3/2017 05:00 to 4:10 75.06 74.93 74.03 73.86 72.66 71.67
9/3/2017 04:00 to 3:10 71.92 69.25 69.50 70.30 69.94 70.59
9/3/2017 03:00 to 2:10 73.25 74.70 75.04 75.35 74.74 75.19
9/3/2017 02:00 to 1:10 74.79 74.66 73.96 73.25 72.43 72.62
9/3/2017 01:00 to 0:10 72.05 74.60 74.22 76.95 76.83 79.61